Etusivu
METAR-TAF:

METAR-TAF

Lentoasemat :

Ephrata Municipal Airport

Ephrata, Washington, Yhdysvallat

Leveyspiiri: 47-18-27N, Pituuspiiri: 119-30-57W, korkeus merenpinnasta: 389 m

Tämänhetkinen sää

Tämä raportti tehtiin 23 minuuttia sitten, kello 06.53 UTC
Tuuli 6 kn pohjoisesta
Lämpötila 1°C
Kosteus 80%
Ilmanpaine 1021 hPa
Näkyvyys: 16.1 km
selkeää

METAR: KEPH 010653Z AUTO 01006KT 10SM CLR 01/M02 A3016 RMK AO2 SLP221 T00111017

Aika: 23:16 (07:16 UTC)


TAF: puuttuu

Säähavainnot ja -ennusteet yli 4000 lentoasemalta (METAR- ja TAF-raportit).

Käytössä olevat sääasemat on merkitty karttaan keltaisilla ja punaisilla pisteillä.

Aseta hiiri pisteen päälle nähdäksesi sääaseman nimen.

Klikkaa sitten nähdäksesi säähavainnot ja -ennusteet.

Kartan vaihtaminen: klikkaa mustalla rastilla varustettuja vihreitä pisteitä, niin voit zoomata sisään; viivalla varustettua vihreää pistettä, niin voit zoomata ulos tai vihreitä nuolia, niin pääset viereisille kartoille.


METAR-TAF: